Tiempo atmosférico en la estación meteorológica de San Bartolome Tirajana, Cuevas del Pinar, Las Palmas (1220 m.)



Fecha
DESCASC
Temp. máxima en grados centígrados (hora)
DESCASC
Temp. mínima en grados centígrados (hora)
DESCASC
Temp. media en grados centígrados
DESCASC
Racha de viento máxima en m/sg (hora)
DESCASC
Velocidad máxima media en intervalos de 10 minutos(hora)
DESCASC
Precipitaciones diarias en mm
DESCASC
Precipitaciones de 00:00 a 06:00 en mm
DESCASC
Precipitaciones de 06:00 a 12:00 en mm
DESCASC
Precipitaciones de 12:00 a 18:00 en mm
DESCASC
Precipitaciones de 18:00 a 24:00 en mm
DESCASC
04-03-2021 17.1 (16:20) 10.3 (23:10) 13.7 7.5 (18:50) 3.33 (13:20) 0 0 0 0 0
03-03-2021 16 (13:20) 7.7 (02:10) 11.8 5 (11:40) 2.78 (11:40) 0 0 0 0 0
02-03-2021 14.8 (14:10) 6.1 (07:20) 10.5 5.28 (14:50) 3.33 (17:10) 0 0 0 0 0
01-03-2021 13.2 (17:30) 7.5 (01:00) 10.3 8.61 (05:50) 3.33 (02:10) 0 0 0 0 0
28-02-2021 11.8 (17:20) 5.9 (00:00) 8.9 12.5 (23:59) 4.17 (23:10) 2.6 1.4 0.8 0.4 0
27-02-2021 10.6 (14:00) 5.2 (00:00) 7.9 15 (01:20) 5.56 (08:20) 0 0 0 0 0
26-02-2021 9.8 (11:50) 6.3 (00:00) 8.1 18.89 (05:10) 8.33 (04:00) 0 0 0 0 0
25-02-2021 15.8 (11:20) 8.5 (00:00) 12.2 15.83 (21:40) 7.78 (21:40) 0 0 0 0 0
24-02-2021 16.9 (16:20) 11 (00:00) 13.9 6.67 (11:50) 3.61 (09:10) 0 0 0 0 0
23-02-2021 16.1 (12:50) 10.3 (00:00) 13.2 5 (20:10) 3.06 (20:10) 0 0 0 0 0
22-02-2021 13.1 (15:30) 7.4 (00:00) 10.3 5 (15:30) 2.78 (15:30) 0 0 0 0 0
21-02-2021 12.4 (12:20) 7.3 (00:00) 9.8 8.33 (07:10) 3.33 (00:10) 0.2 0.2 0 0 0
20-02-2021 15.3 (14:10) 8.9 (00:00) 12.1 13.89 (21:40) 6.39 (19:50) 5.8 0 0 0 5.8
19-02-2021 17.3 (15:50) 9.6 (00:00) 13.4 5.56 (13:20) 2.78 (14:50) 0 0 0 0 0
18-02-2021 15.8 (16:20) 8.8 (00:00) 12.3 6.67 (12:30) 3.61 (12:40) 0 0 0 0 0
17-02-2021 14 (17:30) 7.2 (00:00) 10.6 17.78 (00:40) 6.11 (00:50) 0 0 0 0 0
16-02-2021 13.1 (00:00) 8.9 (00:00) 11 18.61 (04:30) 6.11 (03:40) 0 0 0 0 0
15-02-2021 16.4 (16:00) 13.1 (00:00) 14.8 11.94 (09:00) 4.44 (22:00) 0 0 0 0 0
14-02-2021 18.9 (15:30) 13 (00:00) 15.9 8.33 (11:20) 3.06 (14:00) 0 0 0 0 0
13-02-2021 18 (15:50) 11.7 (00:00) 14.8 5.83 (15:00) 3.06 (13:20) 0 0 0 0 0
12-02-2021 16.1 (15:10) 6.9 (00:00) 11.5 4.72 (14:50) 3.33 (19:30) 0 0 0 0 0
11-02-2021 13.3 (12:30) 7.6 (00:00) 10.5 5.28 (17:50) 3.06 (17:50) 0 0 0 0 0
10-02-2021 15.8 (13:10) 8.1 (00:00) 12 4.72 (13:40) 2.78 (13:20) 0 0 0 0 0
09-02-2021 14.8 (14:20) 7.5 (00:00) 11.2 4.72 (13:40) 2.78 (15:50) 0 0 0 0 0
08-02-2021 13.3 (13:40) 8.2 (00:00) 10.8 5.28 (13:40) 2.5 (11:00) 0 0 0 0 0
07-02-2021 10.7 (13:00) 5.8 (00:00) 8.3 7.78 (03:50) 2.22 (22:40) 0 0 0 0 0
06-02-2021 8.7 (15:10) 4.7 (00:00) 6.7 15.83 (11:40) 6.11 (01:40) 4.4 2.6 1.2 0.2 0.4
05-02-2021 7.6 (16:40) 4.1 (00:00) 5.8 12.78 (20:50) 5 (09:40) 6.4 0.6 2.6 1.6 1.6
04-02-2021 12.5 (00:00) 5.1 (00:00) 8.8 10 (13:20) 4.72 (13:20) 2.2 0 0.6 0 1.6

Gráficas

Temp. máximas Temp. mínimas Temp. medias Precipitaciones Rachas de viento máximas Velocidades máximas media en intervalos de 10 minutos

Datos horarios

Fecha y hora oficial Temperatura (ºC) Velocidad del viento (km/h) Dirección del viento Racha (km/h) Dirección de racha Precipitación (mm) Presión (hPa) Tendencia (hPa) Humedad (%)
2021-03-05 23:00:00 9.6 6 Sudeste 22 Norte 0 -- -- 83
2021-03-05 22:00:00 9.4 8 Sudoeste 51 Noroeste 0 -- -- 84
2021-03-05 21:00:00 9.1 13 Norte 60 Norte 0 -- -- 60
2021-03-05 20:00:00 9 14 Oeste 41 Oeste 0 -- -- 81
2021-03-05 19:00:00 10.8 14 Oeste 36 Sudoeste 0 -- -- 77
2021-03-05 18:00:00 11.5 14 Oeste 41 Norte 0 -- -- 76
2021-03-05 17:00:00 11.7 17 Noroeste 41 Norte 0 -- -- 77
2021-03-05 16:00:00 13.4 16 Norte 37 Noroeste 0 -- -- 74
2021-03-05 15:00:00 15.5 12 Oeste 35 Oeste 0 -- -- 54
2021-03-05 14:00:00 14.1 10 Oeste 25 Noroeste 0 -- -- 63
2021-03-05 13:00:00 14.3 8 Noroeste 26 Noroeste 0 -- -- 66
2021-03-05 12:00:00 14.1 9 Noroeste 37 Noroeste 0 -- -- 71
2021-03-05 11:00:00 14.9 9 Oeste 24 Oeste 0 -- -- 59
2021-03-05 10:00:00 13.6 6 Sudoeste 14 Nordeste 0 -- -- 60
2021-03-05 09:00:00 13 5 Nordeste 30 Este 0 -- -- 60
2021-03-05 08:00:00 12.4 9 Nordeste 28 Nordeste 0 -- -- 62
2021-03-05 07:00:00 11.1 4 Sudeste 21 Nordeste 0 -- -- 67
2021-03-05 06:00:00 9.6 5 Sur 13 Norte 0 -- -- 77
2021-03-05 05:00:00 10.3 5 Sudoeste 20 Nordeste 0 -- -- 69
2021-03-05 04:00:00 10.8 3 Oeste 8 Sur 0 -- -- 64
2021-03-05 03:00:00 10.9 3 Este 10 Este 0 -- -- 65
2021-03-05 02:00:00 10.7 3 Sur 12 Noroeste 0 -- -- 67
2021-03-05 01:00:00 10.3 3 Este 8 Sudeste 0 -- -- 72
2021-03-05 00:00:00 11 3 Sudeste 9 Nordeste 0 -- -- 66
2021-03-04 23:00:00 10.6 4 Sudeste 10 Nordeste 0 -- -- 72
2021-03-04 22:00:00 10.7 2 Sudeste 16 Este 0 -- -- 77
2021-03-04 21:00:00 12.3 5 Sudoeste 21 Noroeste 0 -- -- 68
2021-03-04 20:00:00 12.7 4 Sudeste 24 Nordeste 0 -- -- 65
2021-03-04 19:00:00 13.4 11 Nordeste 27 Nordeste 0 -- -- 54
2021-03-04 18:00:00 14.2 8 Este 15 Nordeste 0 -- -- 76
2021-03-04 17:00:00 16.2 6 Oeste 15 Noroeste 0 -- -- 57
2021-03-04 16:00:00 16.8 6 Oeste 15 Oeste 0 -- -- 62
2021-03-04 15:00:00 16.9 8 Oeste 15 Oeste 0 -- -- 55
2021-03-04 14:00:00 16.2 9 Noroeste 21 Nordeste 0 -- -- 63
2021-03-04 13:00:00 15.2 10 Nordeste 19 Norte 0 -- -- 61
2021-03-04 12:00:00 15.9 5 Noroeste 14 Oeste 0 -- -- 44
2021-03-04 11:00:00 16.3 6 Oeste 11 Oeste 0 -- -- 23
2021-03-04 10:00:00 12.9 5 Sur 8 Sudeste 0 -- -- 21
2021-03-04 09:00:00 11.9 5 Sudeste 8 Sudeste 0 -- -- 19
2021-03-04 08:00:00 12.1 3 Este 9 Sudeste 0 -- -- 19
2021-03-04 07:00:00 11.6 3 Sudeste 8 Sudeste 0 -- -- 19
2021-03-04 06:00:00 11.6 5 Este 8 Nordeste 0 -- -- 18
2021-03-04 05:00:00 12.3 5 Sur 9 Sur 0 -- -- 17
2021-03-04 04:00:00 12.2 6 Sur 12 Sudeste 0 -- -- 18
2021-03-04 03:00:00 12 6 Este 9 Este 0 -- -- 19
2021-03-04 02:00:00 12.2 6 Este 9 Sudeste 0 -- -- 19
2021-03-04 01:00:00 12.3 5 Este 10 Nordeste 0 -- -- 19
2021-03-04 00:00:00 12.3 5 Este 9 Sudeste 0 -- -- 25
2021-03-03 23:00:00 12.7 3 Este 11 Sudeste 0 -- -- 22
2021-03-03 22:00:00 12.5 6 Sudeste 13 Este 0 -- -- 24
2021-03-03 21:00:00 12.5 6 Sudeste 13 Sudeste 0 -- -- 25
2021-03-03 20:00:00 12.5 5 Este 14 Este 0 -- -- 30
2021-03-03 19:00:00 12.3 9 Este 14 Nordeste 0 -- -- 88
2021-03-03 18:00:00 13.4 7 Este 12 Noroeste 0 -- -- 83
2021-03-03 17:00:00 13.7 6 Norte 17 Noroeste 0 -- -- 83
2021-03-03 16:00:00 14.8 4 Oeste 14 Noroeste 0 -- -- 78
2021-03-03 15:00:00 14.8 6 Nordeste 13 Oeste 0 -- -- 75
2021-03-03 14:00:00 15.5 5 Oeste 17 Noroeste 0 -- -- 67
2021-03-03 13:00:00 15.6 5 Oeste 17 Noroeste 0 -- -- 63
2021-03-03 12:00:00 13.7 9 Norte 18 Nordeste 0 -- -- 69
2021-03-03 11:00:00 12.9 5 Noroeste 11 Nordeste 0 -- -- 67
2021-03-03 10:00:00 10.3 0 Calma 9 Nordeste 0 -- -- 44
2021-03-03 09:00:00 10.8 4 Nordeste 12 Nordeste 0 -- -- 43
2021-03-03 08:00:00 11.3 2 Este 10 Sur 0 -- -- 17
2021-03-03 07:00:00 11.4 6 Sur 10 Sur 0 -- -- 16
2021-03-03 06:00:00 10.8 0 Calma 5 Sudoeste 0 -- -- 18
2021-03-03 05:00:00 9.8 4 Sur 9 Sudeste 0 -- -- 26
2021-03-03 04:00:00 7.9 0 Calma 5 Oeste 0 -- -- 56
2021-03-03 03:00:00 8.5 2 Sudeste 12 Nordeste 0 -- -- 43
2021-03-03 02:00:00 7.8 0 Calma 8 Sudeste 0 -- -- 69
2021-03-03 01:00:00 8.6 3 Sur 11 Sudoeste 0 -- -- 70
2021-03-03 00:00:00 9 3 Sur 8 Sur 0 -- -- 43
2021-03-02 23:00:00 8.1 6 Este 15 Este 0 -- -- 90
2021-03-02 22:00:00 7.9 4 Sudoeste 8 Sudoeste 0 -- -- 91
2021-03-02 21:00:00 9.1 2 Este 7 Este 0 -- -- 90
2021-03-02 20:00:00 10 0 Calma 10 Oeste 0 -- -- 93
2021-03-02 19:00:00 10.5 4 Norte 10 Nordeste 0 -- -- 92
2021-03-02 18:00:00 10.9 5 Oeste 18 Sur 0 -- -- 90
2021-03-02 17:00:00 12 11 Sudoeste 17 Sur 0 -- -- 84
2021-03-02 16:00:00 12.6 9 Sur 15 Sudoeste 0 -- -- 82
2021-03-02 15:00:00 13.5 9 Sudoeste 19 Sudoeste 0 -- -- 77
2021-03-02 14:00:00 14.7 7 Noroeste 14 Sudoeste 0 -- -- 69
2021-03-02 13:00:00 13.1 4 Sur 14 Sudoeste 0 -- -- 70
2021-03-02 12:00:00 13 6 Oeste 15 Oeste 0 -- -- 67
2021-03-02 11:00:00 11.3 3 Noroeste 8 Noroeste 0 -- -- 72
2021-03-02 10:00:00 8.1 2 Sudeste 7 Sur 0 -- -- 82
2021-03-02 09:00:00 6.7 4 Sur 9 Sudoeste 0 -- -- 85
2021-03-02 08:00:00 6.1 6 Sur 9 Sur 0 -- -- 86
2021-03-02 07:00:00 6.3 0 Calma 6 Sudeste 0 -- -- 87
2021-03-02 06:00:00 6.4 5 Sur 8 Sur 0 -- -- 86
2021-03-02 05:00:00 6.2 5 Sur 8 Sur 0 -- -- 88
2021-03-02 04:00:00 6.8 0 Calma 8 Sur 0 -- -- 83
2021-03-02 03:00:00 7 5 Sur 9 Sur 0 -- -- 83
2021-03-02 02:00:00 6.8 3 Sur 10 Sudoeste 0 -- -- 87
2021-03-02 01:00:00 7.1 0 Calma 13 Sudeste 0 -- -- 84
2021-03-02 00:00:00 7.7 8 Sur 11 Sudeste 0 -- -- 86
2021-03-01 23:00:00 7.6 3 Sur 10 Norte 0 -- -- 84
2021-03-01 22:00:00 8.5 5 Norte 21 Nordeste 0 -- -- 75
2021-03-01 21:00:00 9 2 Nordeste 16 Nordeste 0 -- -- 84
2021-03-01 20:00:00 9.4 4 Norte 13 Nordeste 0 -- -- 86
2021-03-01 19:00:00 10.2 3 Sur 15 Oeste 0 -- -- 72
2021-03-01 18:00:00 12.1 10 Sudoeste 18 Oeste 0 -- -- 73
2021-03-01 17:00:00 12.7 7 Oeste 17 Sudoeste 0 -- -- 72
2021-03-01 16:00:00 12.4 3 Oeste 18 Nordeste 0 -- -- 76
2021-03-01 15:00:00 11.6 5 Nordeste 17 Nordeste 0 -- -- 76
2021-03-01 14:00:00 12.4 9 Sudoeste 19 Sur 0 -- -- 75
2021-03-01 13:00:00 12.2 5 Noroeste 22 Oeste 0 -- -- 59
2021-03-01 12:00:00 10.8 9 Oeste 19 Oeste 0 -- -- 64
2021-03-01 11:00:00 10.1 7 Sur 19 Sudeste 0 -- -- 70
2021-03-01 10:00:00 9 8 Sudoeste 22 Oeste 0 -- -- 76
2021-03-01 09:00:00 8.6 5 Nordeste 21 Nordeste 0 -- -- 77
2021-03-01 08:00:00 8 8 Nordeste 26 Sur 0 -- -- 86
2021-03-01 07:00:00 8.3 6 Sudoeste 28 Este 0 -- -- 81
2021-03-01 06:00:00 8.2 9 Nordeste 31 Este 0 -- -- 80
2021-03-01 05:00:00 7.9 8 Sur 27 Nordeste 0 -- -- 78
2021-03-01 04:00:00 8.1 8 Sur 24 Este 0 -- -- 78
2021-03-01 03:00:00 7.7 8 Sudoeste 22 Sudoeste 0 -- -- 80
2021-03-01 02:00:00 7.6 8 Sur 23 Sudeste 0 -- -- 76
2021-03-01 01:00:00 7.5 10 Sur 28 Este 0 -- -- 74
2021-03-01 00:00:00 7.7 14 Este 45 Nordeste 0 -- -- 73
2021-02-28 23:00:00 8.1 13 Este 34 Nordeste 0 -- -- 74
2021-02-28 22:00:00 8.2 8 Este 19 Norte 0 -- -- 76
2021-02-28 21:00:00 8.3 7 Sur 28 Nordeste 0 -- -- 76
2021-02-28 20:00:00 8.6 4 Sur 22 Sudeste 0 -- -- 74
2021-02-28 19:00:00 9.3 6 Sudoeste 20 Noroeste 0 -- -- 70
2021-02-28 18:00:00 11.2 6 Oeste 22 Oeste 0 -- -- 58
2021-02-28 17:00:00 11.1 7 Norte 21 Noroeste 0 -- -- 66
2021-02-28 16:00:00 10.6 10 Noroeste 26 Noroeste 0 -- -- 67
2021-02-28 15:00:00 10.8 8 Oeste 23 Noroeste 0 -- -- 70
2021-02-28 14:00:00 10.3 6 Noroeste 20 Norte 0.4 -- -- 71
2021-02-28 13:00:00 9.6 4 Noroeste 12 Oeste 0 -- -- 89
2021-02-28 12:00:00 9.8 5 Sudoeste 13 Noroeste 0 -- -- 74
2021-02-28 11:00:00 8.8 6 Sudoeste 13 Sur 0 -- -- 84
2021-02-28 10:00:00 7.7 4 Nordeste 18 Sur 0.2 -- -- 91
2021-02-28 09:00:00 7.4 10 Sur 21 Sur 0.2 -- -- 84
2021-02-28 08:00:00 7.1 7 Sur 19 Este 0.2 -- -- 90
2021-02-28 07:00:00 6.9 9 Sudoeste 18 Sudoeste 0.2 -- -- 94
2021-02-28 06:00:00 5.9 7 Nordeste 17 Este 0.6 -- -- 95
2021-02-28 05:00:00 7.4 8 Sudoeste 22 Noroeste 0.4 -- -- 90
2021-02-28 04:00:00 7.3 6 Sur 40 Este 0 -- -- 88
2021-02-28 03:00:00 7.1 8 Sur 18 Oeste 0.2 -- -- 91
2021-02-28 02:00:00 5.9 6 Este 15 Este 0.2 -- -- 91
2021-02-28 01:00:00 7.2 5 Norte 27 Noroeste 0 -- -- 84
2021-02-28 00:00:00 6.8 8 Sur 15 Sur 0 -- -- 85
2021-02-27 23:00:00 6.9 7 Sudoeste 33 Sur 0 -- -- 81
2021-02-27 22:00:00 6.2 11 Sudoeste 30 Nordeste 0 -- -- 72
2021-02-27 21:00:00 6 7 Sur 38 Nordeste 0 -- -- 75
2021-02-27 20:00:00 6.2 10 Sudeste 25 Este 0 -- -- 71
2021-02-27 19:00:00 6.9 6 Nordeste 33 Este 0 -- -- 70
2021-02-27 18:00:00 8.2 9 Norte 29 Este 0 -- -- 74
2021-02-27 17:00:00 9.6 6 Sudoeste 29 Nordeste 0 -- -- 68
2021-02-27 16:00:00 10.5 6 Oeste 23 Nordeste 0 -- -- 66
2021-02-27 15:00:00 9.5 9 Nordeste 27 Noroeste 0 -- -- 67
2021-02-27 14:00:00 10.6 9 Oeste 26 Noroeste 0 -- -- 70
2021-02-27 13:00:00 9.7 9 Oeste 31 Norte 0 -- -- 73
2021-02-27 12:00:00 9.4 8 Noroeste 24 Noroeste 0 -- -- 73
2021-02-27 11:00:00 9.8 6 Noroeste 30 Nordeste 0 -- -- 67
2021-02-27 10:00:00 6.9 9 Norte 33 Nordeste 0 -- -- 75
2021-02-27 09:00:00 5.8 16 Nordeste 45 Nordeste 0 -- -- 76
2021-02-27 08:00:00 5.7 11 Norte 41 Nordeste 0 -- -- 76
2021-02-27 07:00:00 5.8 14 Nordeste 48 Noroeste 0 -- -- 64
2021-02-27 06:00:00 5.4 12 Nordeste 37 Nordeste 0 -- -- 69
2021-02-27 05:00:00 5.4 8 Este 36 Norte 0 -- -- 78
2021-02-27 04:00:00 6.1 11 Nordeste 30 Nordeste 0 -- -- 76
2021-02-27 03:00:00 6.8 7 Sur 45 Nordeste 0 -- -- 79
2021-02-27 02:00:00 7 8 Norte 54 Norte 0 -- -- 78
2021-02-27 01:00:00 6.7 13 Este 51 Norte 0 -- -- 78
2021-02-27 00:00:00 7.1 13 Nordeste 50 Nordeste 0 -- -- 84
2021-02-26 23:00:00 7 19 Nordeste 53 Norte 0 -- -- 83
2021-02-26 22:00:00 6.9 17 Norte 62 Nordeste 0 -- -- 81
2021-02-26 21:00:00 7.2 13 Nordeste 42 Nordeste 0 -- -- 81
2021-02-26 20:00:00 7.1 16 Nordeste 53 Nordeste 0 -- -- 80
2021-02-26 19:00:00 7.4 18 Nordeste 46 Nordeste 0 -- -- 83
2021-02-26 18:00:00 8.3 15 Nordeste 50 Nordeste 0 -- -- 77
2021-02-26 17:00:00 8.7 23 Nordeste 53 Nordeste 0 -- -- 71
2021-02-26 16:00:00 9.3 24 Nordeste 56 Nordeste 0 -- -- 75
2021-02-26 15:00:00 9.1 25 Nordeste 55 Nordeste 0 -- -- 65
2021-02-26 14:00:00 9.4 20 Nordeste 51 Nordeste 0 -- -- 69
2021-02-26 13:00:00 9.7 15 Nordeste 52 Nordeste 0 -- -- 71
2021-02-26 12:00:00 9.6 15 Norte 49 Nordeste 0 -- -- 67
2021-02-26 11:00:00 8.3 24 Nordeste 55 Nordeste 0 -- -- 63
2021-02-26 10:00:00 7.9 14 Nordeste 48 Nordeste 0 -- -- 79
2021-02-26 09:00:00 7 12 Nordeste 44 Nordeste 0 -- -- 78
2021-02-26 08:00:00 6.9 14 Sudeste 61 Nordeste 0 -- -- 82
2021-02-26 07:00:00 6.3 19 Nordeste 63 Nordeste 0 -- -- 68
2021-02-26 06:00:00 6.9 18 Este 68 Nordeste 0 -- -- 76
2021-02-26 05:00:00 7.2 20 Nordeste 56 Nordeste 0 -- -- 59
2021-02-26 04:00:00 7.1 30 Norte 65 Nordeste 0 -- -- 73
2021-02-26 03:00:00 7.2 27 Nordeste 52 Norte 0 -- -- 73
2021-02-26 02:00:00 7.5 21 Nordeste 50 Nordeste 0 -- -- 56
2021-02-26 01:00:00 7.9 20 Norte 45 Nordeste 0 -- -- 45
2021-02-26 00:00:00 8.8 24 Norte 50 Nordeste 0 -- -- 30
2021-02-25 23:00:00 8.6 24 Nordeste 53 Nordeste 0 -- -- 44
2021-02-25 22:00:00 9.6 28 Nordeste 57 Nordeste 0 -- -- 44
2021-02-25 21:00:00 9.6 13 Norte 29 Nordeste 0 -- -- 59
2021-02-25 20:00:00 11.2 12 Nordeste 33 Nordeste 0 -- -- 41
2021-02-25 19:00:00 12.7 12 Nordeste 26 Nordeste 0 -- -- 35
2021-02-25 18:00:00 14.5 8 Oeste 20 Oeste 0 -- -- 56
2021-02-25 17:00:00 15.3 9 Oeste 27 Noroeste 0 -- -- 55
2021-02-25 16:00:00 13.7 11 Noroeste 24 Noroeste 0 -- -- 65
2021-02-25 15:00:00 13.8 10 Nordeste 21 Norte 0 -- -- 70
2021-02-25 14:00:00 14.2 9 Nordeste 20 Norte 0 -- -- 65
2021-02-25 13:00:00 15.2 6 Norte 15 Norte 0 -- -- 55
2021-02-25 12:00:00 14.9 9 Norte 24 Nordeste 0 -- -- 53
2021-02-25 11:00:00 15.3 4 Oeste 12 Sudoeste 0 -- -- 43
2021-02-25 10:00:00 12.9 0 Calma 8 Sur 0 -- -- 46
2021-02-25 09:00:00 12.1 4 Sudeste 7 Sudeste 0 -- -- 45
2021-02-25 08:00:00 12.5 0 Calma 11 Este 0 -- -- 43
2021-02-25 07:00:00 12.5 4 Sudeste 12 Este 0 -- -- 41
2021-02-25 06:00:00 12.1 6 Sudeste 12 Este 0 -- -- 45
2021-02-25 05:00:00 12.7 7 Sudeste 12 Sudeste 0 -- -- 41
2021-02-25 04:00:00 13.2 6 Sudeste 9 Sudeste 0 -- -- 39
2021-02-25 03:00:00 13 7 Sudeste 11 Sudeste 0 -- -- 41
2021-02-25 02:00:00 13.2 5 Sudeste 11 Sur 0 -- -- 42
2021-02-25 01:00:00 13 6 Sudeste 13 Sur 0 -- -- 41
2021-02-25 00:00:00 12.3 6 Sur 13 Sur 0 -- -- 49
2021-02-24 23:00:00 12.5 6 Sur 17 Sur 0 -- -- 45
2021-02-24 22:00:00 12.9 6 Sudeste 14 Sur 0 -- -- 44
2021-02-24 21:00:00 13.1 5 Sudeste 11 Este 0 -- -- 48
2021-02-24 20:00:00 12.9 3 Sudeste 14 Este 0 -- -- 63
2021-02-24 19:00:00 14.1 4 Norte 12 Este 0 -- -- 65
2021-02-24 18:00:00 16.2 5 Nordeste 12 Este 0 -- -- 53
2021-02-24 17:00:00 16.5 6 Nordeste 13 Nordeste 0 -- -- 52
2021-02-24 16:00:00 16.4 7 Nordeste 21 Este 0 -- -- 50
2021-02-24 15:00:00 16.6 8 Nordeste 23 Nordeste 0 -- -- 54
2021-02-24 14:00:00 16.2 7 Este 19 Norte 0 -- -- 47
2021-02-24 13:00:00 15.7 9 Norte 21 Norte 0 -- -- 47
2021-02-24 12:00:00 14.8 7 Norte 24 Nordeste 0 -- -- 49
2021-02-24 11:00:00 14.7 6 Este 16 Nordeste 0 -- -- 37
2021-02-24 10:00:00 12.2 9 Este 19 Nordeste 0 -- -- 40
2021-02-24 09:00:00 11.9 11 Este 20 Este 0 -- -- 31
2021-02-24 08:00:00 11.7 11 Este 18 Este 0 -- -- 24
2021-02-24 07:00:00 11.1 5 Este 12 Este 0 -- -- 21
2021-02-24 06:00:00 11.5 2 Este 12 Este 0 -- -- 22
2021-02-24 05:00:00 11.7 0 Calma 7 Sur 0 -- -- 23
2021-02-24 04:00:00 12.1 4 Sur 18 Este 0 -- -- 23
2021-02-24 03:00:00 11.4 0 Calma 14 Este 0 -- -- 27
2021-02-24 02:00:00 11.5 7 Este 11 Este 0 -- -- 27
2021-02-24 01:00:00 11.5 5 Este 11 Nordeste 0 -- -- 33
2021-02-24 00:00:00 12.2 6 Este 10 Sur 0 -- -- 33
2021-02-23 23:00:00 12.6 6 Sur 12 Sur 0 -- -- 41
2021-02-23 22:00:00 12.6 5 Sur 9 Sudoeste 0 -- -- 30
2021-02-23 21:00:00 13.4 3 Sur 18 Nordeste 0 -- -- 22
2021-02-23 20:00:00 12.6 11 Este 17 Nordeste 0 -- -- 51
2021-02-23 19:00:00 12.4 4 Nordeste 10 Nordeste 0 -- -- 91
2021-02-23 18:00:00 14.7 4 Noroeste 12 Sudoeste 0 -- -- 83
2021-02-23 17:00:00 14.2 5 Oeste 15 Oeste 0 -- -- 86
2021-02-23 16:00:00 14.8 5 Oeste 12 Noroeste 0 -- -- 83
2021-02-23 15:00:00 14.5 6 Noroeste 15 Oeste 0 -- -- 83
2021-02-23 14:00:00 15.4 6 Sudoeste 14 Noroeste 0 -- -- 77
2021-02-23 13:00:00 16.1 7 Oeste 16 Oeste 0 -- -- 68
2021-02-23 12:00:00 15.3 7 Sudoeste 12 Sudoeste 0 -- -- 63
2021-02-23 11:00:00 14.6 4 Oeste 9 Nordeste 0 -- -- 64
2021-02-23 10:00:00 11.7 6 Nordeste 13 Nordeste 0 -- -- 68
2021-02-23 09:00:00 10.8 0 Calma 5 Sur 0 -- -- 55
2021-02-23 08:00:00 10.7 0 Calma 10 Nordeste 0 -- -- 49
2021-02-23 07:00:00 10.4 0 Calma 6 Sur 0 -- -- 58
2021-02-23 06:00:00 10.7 4 Sur 6 Sudoeste 0 -- -- 62
2021-02-23 05:00:00 11 3 Sur 6 Sur 0 -- -- 59
2021-02-23 04:00:00 11.1 2 Este 9 Sur 0 -- -- 59
2021-02-23 03:00:00 11.3 0 Calma 6 Sur 0 -- -- 60
2021-02-23 02:00:00 11.9 2 Este 7 Sudeste 0 -- -- 55
2021-02-23 01:00:00 11.8 0 Calma 6 Sur 0 -- -- 58
2021-02-23 00:00:00 11.5 5 Sur 7 Sur 0 -- -- 69
2021-02-22 23:00:00 11.4 5 Sudeste 8 Sur 0 -- -- 70
2021-02-22 22:00:00 11.4 4 Sur 7 Sur 0 -- -- 72
2021-02-22 21:00:00 11.3 3 Sudeste 9 Este 0 -- -- 74
2021-02-22 20:00:00 11.1 5 Este 12 Nordeste 0 -- -- 84
2021-02-22 19:00:00 11.9 0 Calma 8 Nordeste 0 -- -- 91
2021-02-22 18:00:00 11.4 6 Nordeste 12 Este 0 -- -- 94
2021-02-22 17:00:00 12.2 7 Nordeste 15 Nordeste 0 -- -- 90
2021-02-22 16:00:00 12.8 8 Nordeste 18 Nordeste 0 -- -- 89
2021-02-22 15:00:00 12.3 8 Norte 14 Norte 0 -- -- 91
2021-02-22 14:00:00 11.6 6 Nordeste 14 Nordeste 0 -- -- 92
2021-02-22 13:00:00 12.3 5 Sur 11 Noroeste 0 -- -- 85
2021-02-22 12:00:00 12.4 5 Oeste 17 Nordeste 0 -- -- 83
2021-02-22 11:00:00 11.8 5 Noroeste 17 Norte 0 -- -- 82
2021-02-22 10:00:00 9.6 4 Este 12 Nordeste 0 -- -- 88
2021-02-22 09:00:00 9.3 0 Calma 5 Sudeste 0 -- -- 71
2021-02-22 08:00:00 9.1 5 Sur 11 Sudeste 0 -- -- 68
2021-02-22 07:00:00 8.4 7 Sur 10 Sudeste 0 -- -- 70
2021-02-22 06:00:00 8.5 3 Sur 10 Sudoeste 0 -- -- 74
2021-02-22 05:00:00 7.7 3 Sudoeste 10 Sur 0 -- -- 81
2021-02-22 04:00:00 8.3 4 Sudoeste 15 Sur 0 -- -- 79
2021-02-22 03:00:00 8 3 Sur 10 Sur 0 -- -- 71
2021-02-22 02:00:00 8.2 7 Sur 12 Sudoeste 0 -- -- 64
2021-02-22 01:00:00 8 3 Sur 12 Sur 0 -- -- 75
2021-02-22 00:00:00 7.5 0 Calma 8 Sudoeste 0 -- -- 95
2021-02-21 23:00:00 8 3 Sudoeste 15 Sudoeste 0 -- -- 95
2021-02-21 22:00:00 8.7 9 Sudoeste 13 Sudoeste 0 -- -- 96
2021-02-21 21:00:00 9 4 Sudoeste 13 Sudoeste 0 -- -- 96
2021-02-21 20:00:00 9.4 5 Sudoeste 11 Sudoeste 0 -- -- 96
2021-02-21 19:00:00 9.9 6 Sudoeste 15 Noroeste 0 -- -- 95
2021-02-21 18:00:00 10.3 5 Sudoeste 17 Sudoeste 0 -- -- 94
2021-02-21 17:00:00 10.5 9 Sur 14 Sudoeste 0 -- -- 95
2021-02-21 16:00:00 11.8 9 Sudoeste 17 Sudoeste 0 -- -- 86
2021-02-21 15:00:00 11.3 6 Sudoeste 20 Sudoeste 0 -- -- 88
2021-02-21 14:00:00 11.9 9 Sudoeste 18 Sudoeste 0 -- -- 86
2021-02-21 13:00:00 11.9 8 Sudoeste 17 Sudoeste 0 -- -- 83
2021-02-21 12:00:00 12.2 8 Oeste 15 Noroeste 0 -- -- 76
2021-02-21 11:00:00 11.2 5 Oeste 11 Sudoeste 0 -- -- 72
2021-02-21 10:00:00 8.8 6 Sudoeste 26 Noroeste 0 -- -- 78
2021-02-21 09:00:00 7.8 7 Oeste 19 Sudoeste 0 -- -- 82
2021-02-21 08:00:00 7.4 3 Sur 30 Oeste 0 -- -- 87
2021-02-21 07:00:00 7.7 8 Oeste 23 Noroeste 0 -- -- 92
2021-02-21 06:00:00 8.7 7 Oeste 18 Oeste 0 -- -- 97
2021-02-21 05:00:00 8.8 8 Oeste 23 Oeste 0 -- -- 97
2021-02-21 04:00:00 9.3 9 Sudoeste 22 Oeste 0.2 -- -- 96
2021-02-21 03:00:00 9.4 9 Sudoeste 21 Oeste 0 -- -- 95
2021-02-21 02:00:00 9.9 8 Sudoeste 26 Noroeste 0 -- -- 93
2021-02-21 01:00:00 10.2 4 Sur 20 Sudoeste 0 -- -- 98
2021-02-21 00:00:00 10.7 12 Sudoeste 35 Sudoeste 0 -- -- 100
2021-02-20 23:00:00 11.5 17 Oeste 45 Sudoeste 1 -- -- 100
2021-02-20 22:00:00 11.7 21 Sudoeste 50 Oeste 1.6 -- -- 100
2021-02-20 21:00:00 11.6 18 Oeste 45 Oeste 1 -- -- 100
2021-02-20 20:00:00 11.5 20 Oeste 43 Sudoeste 1.6 -- -- 99
2021-02-20 19:00:00 11.1 20 Oeste 41 Sudoeste 0.6 -- -- 99
2021-02-20 18:00:00 10.6 19 Oeste 38 Sudoeste 0 -- -- 98
2021-02-20 17:00:00 10.4 20 Oeste 46 Sudoeste 0 -- -- 96
2021-02-20 16:00:00 11.1 17 Oeste 39 Oeste 0 -- -- 81
2021-02-20 15:00:00 14.3 19 Oeste 37 Oeste 0 -- -- 46
2021-02-20 14:00:00 15.1 17 Oeste 35 Oeste 0 -- -- 44
2021-02-20 13:00:00 14.3 15 Oeste 29 Oeste 0 -- -- 39
2021-02-20 12:00:00 13 14 Oeste 31 Sudoeste 0 -- -- 38
2021-02-20 11:00:00 13.2 15 Oeste 28 Oeste 0 -- -- 29
2021-02-20 10:00:00 11.1 11 Oeste 24 Oeste 0 -- -- 31
2021-02-20 09:00:00 9.4 10 Sudoeste 23 Sudoeste 0 -- -- 34
2021-02-20 08:00:00 9.1 10 Sudoeste 18 Sudoeste 0 -- -- 34
2021-02-20 07:00:00 9.2 10 Sudoeste 21 Sudoeste 0 -- -- 34
2021-02-20 06:00:00 9.1 9 Sudoeste 18 Sudoeste 0 -- -- 34
2021-02-20 05:00:00 9.3 9 Sudoeste 19 Sudoeste 0 -- -- 33
2021-02-20 04:00:00 9.6 8 Sudoeste 15 Sudoeste 0 -- -- 32
2021-02-20 03:00:00 10 8 Sudoeste 15 Sur 0 -- -- 32
2021-02-20 02:00:00 10.7 7 Sudoeste 12 Oeste 0 -- -- 28
2021-02-20 01:00:00 10.3 6 Sudoeste 12 Sudoeste 0 -- -- 32
2021-02-20 00:00:00 10.4 6 Sur 10 Sudoeste 0 -- -- 32
2021-02-19 23:00:00 10.6 5 Sur 12 Sur 0 -- -- 31
2021-02-19 22:00:00 11.6 0 Calma 7 Sur 0 -- -- 21
2021-02-19 21:00:00 11.4 3 Sur 9 Sur 0 -- -- 28
2021-02-19 20:00:00 11.5 9 Sur 13 Sur 0 -- -- 30
2021-02-19 19:00:00 13.2 4 Sudoeste 12 Oeste 0 -- -- 31
2021-02-19 18:00:00 15.9 6 Oeste 17 Oeste 0 -- -- 27
2021-02-19 17:00:00 16.5 8 Oeste 18 Noroeste 0 -- -- 31
2021-02-19 16:00:00 17.2 9 Sudoeste 18 Oeste 0 -- -- 36
2021-02-19 15:00:00 16.7 9 Sudoeste 17 Sudoeste 0 -- -- 33
2021-02-19 14:00:00 15.9 7 Noroeste 20 Norte 0 -- -- 33
2021-02-19 13:00:00 15.9 8 Norte 19 Noroeste 0 -- -- 25
2021-02-19 12:00:00 16 5 Oeste 13 Oeste 0 -- -- 24
2021-02-19 11:00:00 14.8 5 Sudoeste 8 Sudoeste 0 -- -- 25
2021-02-19 10:00:00 11.4 3 Sudeste 11 Este 0 -- -- 30
2021-02-19 09:00:00 10.4 6 Este 10 Este 0 -- -- 30
2021-02-19 08:00:00 9.6 8 Nordeste 12 Nordeste 0 -- -- 29
2021-02-19 07:00:00 10.2 8 Este 13 Nordeste 0 -- -- 27
2021-02-19 06:00:00 11.2 3 Sudeste 9 Este 0 -- -- 22
2021-02-19 05:00:00 10.9 3 Sudeste 10 Este 0 -- -- 23
2021-02-19 04:00:00 10.8 7 Este 12 Este 0 -- -- 22
2021-02-19 03:00:00 10.9 6 Sudeste 10 Este 0 -- -- 20
2021-02-19 02:00:00 11.6 6 Sudeste 12 Sudeste 0 -- -- 19
2021-02-19 01:00:00 11.7 6 Sudeste 13 Sudeste 0 -- -- 18
2021-02-19 00:00:00 11.8 3 Este 13 Sur 0 -- -- 21
2021-02-18 23:00:00 11.3 3 Este 8 Sudeste 0 -- -- 25
2021-02-18 22:00:00 11.5 0 Calma 9 Nordeste 0 -- -- 32
2021-02-18 21:00:00 11.6 6 Este 12 Nordeste 0 -- -- 41
2021-02-18 20:00:00 11.7 5 Este 7 Nordeste 0 -- -- 52
2021-02-18 19:00:00 12.7 0 Calma 8 Oeste 0 -- -- 51
2021-02-18 18:00:00 14.8 5 Oeste 12 Noroeste 0 -- -- 44
2021-02-18 17:00:00 14.7 8 Nordeste 15 Este 0 -- -- 52
2021-02-18 16:00:00 15.1 8 Nordeste 19 Norte 0 -- -- 49
2021-02-18 15:00:00 15.1 10 Este 20 Norte 0 -- -- 45
2021-02-18 14:00:00 15 9 Nordeste 19 Nordeste 0 -- -- 42
2021-02-18 13:00:00 14.5 9 Norte 24 Nordeste 0 -- -- 35
2021-02-18 12:00:00 14.1 9 Norte 22 Nordeste 0 -- -- 29
2021-02-18 11:00:00 13.5 6 Norte 20 Este 0 -- -- 28
2021-02-18 10:00:00 11.1 6 Sudeste 21 Este 0 -- -- 29
2021-02-18 09:00:00 10.2 8 Sur 18 Sur 0 -- -- 28
2021-02-18 08:00:00 9.7 8 Sur 23 Sudeste 0 -- -- 27
2021-02-18 07:00:00 9.3 8 Sur 22 Sur 0 -- -- 28
2021-02-18 06:00:00 9.4 6 Sudeste 19 Este 0 -- -- 31
2021-02-18 05:00:00 9 4 Sudeste 18 Este 0 -- -- 34
2021-02-18 04:00:00 9.3 5 Sudeste 12 Este 0 -- -- 32
2021-02-18 03:00:00 8.8 4 Sudeste 15 Este 0 -- -- 35
2021-02-18 02:00:00 9.5 8 Sur 13 Sur 0 -- -- 32
2021-02-18 01:00:00 9.5 7 Sur 17 Sudeste 0 -- -- 31
2021-02-18 00:00:00 9 8 Sur 26 Este 0 -- -- 30
2021-02-17 23:00:00 9.3 8 Este 20 Este 0 -- -- 31
2021-02-17 22:00:00 9 2 Este 8 Nordeste 0 -- -- 25
2021-02-17 21:00:00 8.8 0 Calma 14 Este 0 -- -- 55
2021-02-17 20:00:00 10 6 Este 13 Este 0 -- -- 59
2021-02-17 19:00:00 10.9 4 Sur 10 Noroeste 0 -- -- 55
2021-02-17 18:00:00 13.2 6 Noroeste 14 Oeste 0 -- -- 46
2021-02-17 17:00:00 13.4 5 Nordeste 15 Nordeste 0 -- -- 49
2021-02-17 16:00:00 13.8 6 Noroeste 16 Este 0 -- -- 43
2021-02-17 15:00:00 13.4 10 Este 18 Nordeste 0 -- -- 42
2021-02-17 14:00:00 12.8 5 Nordeste 19 Nordeste 0 -- -- 41
2021-02-17 13:00:00 11.7 8 Este 26 Nordeste 0 -- -- 42
2021-02-17 12:00:00 10.5 11 Nordeste 37 Nordeste 0 -- -- 43
2021-02-17 11:00:00 9.7 14 Nordeste 37 Este 0 -- -- 45
2021-02-17 10:00:00 8.6 11 Este 31 Norte 0 -- -- 49
2021-02-17 09:00:00 7.7 6 Sudoeste 25 Sudeste 0 -- -- 42
2021-02-17 08:00:00 7.3 13 Sudeste 28 Sudeste 0 -- -- 42
2021-02-17 07:00:00 7.5 13 Sur 46 Este 0 -- -- 40
2021-02-17 06:00:00 8.2 13 Sur 56 Este 0 -- -- 37
2021-02-17 05:00:00 8.9 17 Sudeste 52 Este 0 -- -- 37
2021-02-17 04:00:00 8.9 17 Sudeste 50 Oeste 0 -- -- 44
2021-02-17 03:00:00 9.5 20 Sur 56 Nordeste 0 -- -- 47
2021-02-17 02:00:00 10.1 21 Sur 63 Sudoeste 0 -- -- 42
2021-02-17 01:00:00 10.6 21 Sur 64 Nordeste 0 -- -- 37
2021-02-17 00:00:00 11 17 Sudoeste 67 Nordeste 0 -- -- 31
2021-02-16 23:00:00 11.4 17 Sur 54 Este 0 -- -- 25
2021-02-16 22:00:00 11.5 17 Sur 41 Nordeste 0 -- -- 23
2021-02-16 21:00:00 11.4 15 Sudoeste 39 Sudeste 0 -- -- 26
2021-02-16 20:00:00 11 13 Sudoeste 32 Sudeste 0 -- -- 31
2021-02-16 19:00:00 10.6 12 Sudoeste 45 Nordeste 0 -- -- 36
2021-02-16 18:00:00 11.5 17 Sur 39 Sudeste 0 -- -- 36
2021-02-16 17:00:00 11.7 15 Sudeste 39 Nordeste 0 -- -- 39
2021-02-16 16:00:00 12.3 12 Sudeste 36 Este 0 -- -- 44
2021-02-16 15:00:00 12 12 Este 40 Este 0 -- -- 46
2021-02-16 14:00:00 12.2 11 Este 41 Nordeste 0 -- -- 48
2021-02-16 13:00:00 11.9 10 Oeste 43 Nordeste 0 -- -- 43
2021-02-16 12:00:00 11.3 17 Este 52 Este 0 -- -- 51
2021-02-16 11:00:00 10.7 14 Sudoeste 53 Este 0 -- -- 51
2021-02-16 10:00:00 9.8 15 Sur 45 Nordeste 0 -- -- 51
2021-02-16 09:00:00 9.2 13 Este 47 Nordeste 0 -- -- 56
2021-02-16 08:00:00 9.1 15 Sudeste 48 Este 0 -- -- 51
2021-02-16 07:00:00 9.5 17 Sudeste 40 Sudeste 0 -- -- 47
2021-02-16 06:00:00 9.8 13 Sur 44 Nordeste 0 -- -- 44
2021-02-16 05:00:00 10.5 17 Sudeste 67 Este 0 -- -- 40
2021-02-16 04:00:00 10.8 18 Sur 59 Este 0 -- -- 37
2021-02-16 03:00:00 11.5 20 Sudeste 60 Este 0 -- -- 38
2021-02-16 02:00:00 11.8 16 Sudeste 62 Este 0 -- -- 41
2021-02-16 01:00:00 12.5 17 Sudeste 53 Este 0 -- -- 39
2021-02-16 00:00:00 13.1 15 Sur 41 Este 0 -- -- 33
2021-02-15 23:00:00 13.6 13 Sudeste 42 Nordeste 0 -- -- 30
2021-02-15 22:00:00 14.2 16 Sudeste 34 Sur 0 -- -- 27
2021-02-15 21:00:00 14.2 11 Sur 25 Sur 0 -- -- 27
2021-02-15 20:00:00 13.9 10 Sur 22 Sudoeste 0 -- -- 27
2021-02-15 19:00:00 14 8 Sudoeste 28 Sudeste 0 -- -- 26
2021-02-15 18:00:00 15 10 Sudeste 25 Nordeste 0 -- -- 27
2021-02-15 17:00:00 15.6 7 Este 22 Norte 0 -- -- 27
2021-02-15 16:00:00 16.4 8 Oeste 25 Nordeste 0 -- -- 28
2021-02-15 15:00:00 16.2 10 Noroeste 27 Norte 0 -- -- 30
2021-02-15 14:00:00 15.3 12 Norte 28 Norte 0 -- -- 32
2021-02-15 13:00:00 15.3 8 Norte 41 Este 0 -- -- 35
2021-02-15 12:00:00 14.9 11 Oeste 35 Nordeste 0 -- -- 34
2021-02-15 11:00:00 14.5 10 Este 40 Nordeste 0 -- -- 33
2021-02-15 10:00:00 13.5 13 Este 42 Nordeste 0 -- -- 34
2021-02-15 09:00:00 13.4 14 Este 43 Nordeste 0 -- -- 34
2021-02-15 08:00:00 13.2 13 Este 34 Este 0 -- -- 31
2021-02-15 07:00:00 13.5 13 Este 28 Sudeste 0 -- -- 30
2021-02-15 06:00:00 13.1 10 Sur 31 Este 0 -- -- 33
2021-02-15 05:00:00 13.8 9 Este 33 Nordeste 0 -- -- 31
2021-02-15 04:00:00 14.7 9 Nordeste 26 Sudoeste 0 -- -- 29
2021-02-15 03:00:00 15.6 12 Oeste 40 Este 0 -- -- 23
2021-02-15 02:00:00 15.2 12 Sur 30 Sudoeste 0 -- -- 19
2021-02-15 01:00:00 14.8 8 Sudoeste 24 Oeste 0 -- -- 23
2021-02-15 00:00:00 14.7 6 Sudoeste 24 Norte 0 -- -- 24
2021-02-14 23:00:00 15.3 9 Sudeste 22 Nordeste 0 -- -- 22
2021-02-14 22:00:00 15.1 8 Sur 22 Oeste 0 -- -- 25
2021-02-14 21:00:00 14.2 5 Sudeste 11 Sudoeste 0 -- -- 26
2021-02-14 20:00:00 14.6 3 Sur 9 Oeste 0 -- -- 25
2021-02-14 19:00:00 15.7 5 Sudeste 18 Este 0 -- -- 28
2021-02-14 18:00:00 17.6 7 Nordeste 19 Nordeste 0 -- -- 21
2021-02-14 17:00:00 18.4 6 Este 15 Norte 0 -- -- 20
2021-02-14 16:00:00 18.5 8 Norte 19 Norte 0 -- -- 19
2021-02-14 15:00:00 18.7 10 Norte 26 Noroeste 0 -- -- 19
2021-02-14 14:00:00 18.4 11 Nordeste 28 Oeste 0 -- -- 20
2021-02-14 13:00:00 18.4 10 Este 22 Nordeste 0 -- -- 32
2021-02-14 12:00:00 18.6 5 Sudeste 30 Este 0 -- -- 27
2021-02-14 11:00:00 17.9 6 Sur 18 Sudoeste 0 -- -- 27
2021-02-14 10:00:00 15.2 8 Sudeste 24 Noroeste 0 -- -- 30
2021-02-14 09:00:00 13.6 4 Sur 15 Oeste 0 -- -- 34
2021-02-14 08:00:00 14 3 Sudeste 17 Sudoeste 0 -- -- 31
2021-02-14 07:00:00 15.2 8 Nordeste 22 Sudeste 0 -- -- 29
2021-02-14 06:00:00 14.3 5 Norte 12 Sudoeste 0 -- -- 29
2021-02-14 05:00:00 13.1 3 Sudeste 11 Norte 0 -- -- 34
2021-02-14 04:00:00 13.2 3 Sudeste 8 Sur 0 -- -- 37
2021-02-14 03:00:00 13.7 0 Calma 8 Sur 0 -- -- 34
2021-02-14 02:00:00 13.6 2 Sudeste 9 Sudeste 0 -- -- 32
2021-02-14 01:00:00 13.6 3 Sudeste 8 Sudeste 0 -- -- 42
2021-02-14 00:00:00 13.7 2 Nordeste 10 Este 0 -- -- 36
2021-02-13 23:00:00 15 4 Nordeste 20 Este 0 -- -- 30
2021-02-13 22:00:00 14.6 6 Noroeste 15 Norte 0 -- -- 31
2021-02-13 21:00:00 13.7 4 Nordeste 8 Nordeste 0 -- -- 36
2021-02-13 20:00:00 13.9 0 Calma 15 Norte 0 -- -- 43
2021-02-13 19:00:00 15.4 4 Sudeste 15 Este 0 -- -- 43
2021-02-13 18:00:00 16.7 5 Norte 14 Nordeste 0 -- -- 47
2021-02-13 17:00:00 17.4 5 Nordeste 14 Este 0 -- -- 52
2021-02-13 16:00:00 17.8 7 Este 21 Este 0 -- -- 54
2021-02-13 15:00:00 17.6 9 Este 21 Este 0 -- -- 45
2021-02-13 14:00:00 17.6 6 Nordeste 21 Norte 0 -- -- 49
2021-02-13 13:00:00 16.9 8 Oeste 17 Noroeste 0 -- -- 56
2021-02-13 12:00:00 16.4 8 Nordeste 21 Este 0 -- -- 47
2021-02-13 07:00:00 13.5 4 Sudeste 9 Este 0 -- -- 33
2021-02-13 06:00:00 14 6 Este 12 Este 0 -- -- 32
2021-02-13 05:00:00 13.3 0 Calma 6 Sudeste 0 -- -- 34
2021-02-13 04:00:00 13 0 Calma 8 Sudeste 0 -- -- 35
2021-02-13 03:00:00 12.7 3 Este 10 Sur 0 -- -- 39
2021-02-13 02:00:00 12.2 4 Sur 9 Sudeste 0 -- -- 41
2021-02-13 01:00:00 12.1 0 Calma 8 Sur 0 -- -- 41
2021-02-13 00:00:00 12 0 Calma 14 Nordeste 0 -- -- 44
2021-02-12 23:00:00 12.4 2 Nordeste 10 Este 0 -- -- 46
2021-02-12 22:00:00 12.7 3 Este 8 Este 0 -- -- 39
2021-02-12 21:00:00 11.2 0 Calma 5 Nordeste 0 -- -- 58
2021-02-12 20:00:00 10.7 0 Calma 16 Nordeste 0 -- -- 85
2021-02-12 19:00:00 12.7 3 Nordeste 10 Oeste 0 -- -- 83
2021-02-12 18:00:00 15.1 5 Oeste 12 Noroeste 0 -- -- 75
2021-02-12 17:00:00 15.7 7 Oeste 13 Oeste 0 -- -- 73
2021-02-12 16:00:00 15.7 6 Oeste 16 Sudoeste 0 -- -- 72
2021-02-12 15:00:00 15.9 5 Sudeste 17 Sur 0 -- -- 70
2021-02-12 14:00:00 15.3 8 Sudoeste 14 Sur 0 -- -- 69
2021-02-12 13:00:00 15.2 6 Sudoeste 13 Nordeste 0 -- -- 66
2021-02-12 12:00:00 13.8 6 Nordeste 9 Oeste 0 -- -- 73
2021-02-12 11:00:00 12.7 0 Calma 5 Sur 0 -- -- 70
2021-02-12 10:00:00 8.5 3 Sudeste 6 Norte 0 -- -- 79
2021-02-12 09:00:00 8.3 3 Este 11 Nordeste 0 -- -- 71
2021-02-12 08:00:00 7.1 2 Sudoeste 13 Este 0 -- -- 87
2021-02-12 07:00:00 7.4 6 Nordeste 9 Nordeste 0 -- -- 80
2021-02-12 06:00:00 6.9 2 Sudeste 6 Sur 0 -- -- 89
2021-02-12 05:00:00 7.1 4 Sudeste 8 Sur 0 -- -- 91
2021-02-12 04:00:00 7 6 Sur 8 Sur 0 -- -- 89
2021-02-12 03:00:00 7.7 0 Calma 7 Este 0 -- -- 81
2021-02-12 02:00:00 7.2 0 Calma -- -- 0 -- -- 88
2021-02-12 01:00:00 6.9 0 Calma 7 Este 0 -- -- 94
2021-02-12 00:00:00 7.6 2 Este 9 Nordeste 0 -- -- 93
2021-02-11 23:00:00 7.8 3 Sudoeste 8 Sur 0 -- -- 85
2021-02-11 22:00:00 8.1 5 Este 9 Nordeste 0 -- -- 74
2021-02-11 21:00:00 8.9 6 Este 19 Este 0 -- -- 92
2021-02-11 20:00:00 9.3 4 Sudeste 13 Nordeste 0 -- -- 92
2021-02-11 19:00:00 10 5 Sur 14 Sudoeste 0 -- -- 86
2021-02-11 18:00:00 11.6 8 Sudoeste 19 Sudoeste 0 -- -- 86
2021-02-11 17:00:00 12.6 9 Oeste 15 Oeste 0 -- -- 83
2021-02-11 16:00:00 11.4 7 Oeste 13 Oeste 0 -- -- 91
2021-02-11 15:00:00 10.8 2 Noroeste 13 Sur 0 -- -- 93
2021-02-11 14:00:00 12.1 6 Sur 15 Sur 0 -- -- 85
2021-02-11 13:00:00 12.9 7 Oeste 13 Sur 0 -- -- 78
2021-02-11 12:00:00 13 7 Noroeste 14 Norte 0 -- -- 73
2021-02-11 11:00:00 11.7 5 Norte 14 Norte 0 -- -- 77
2021-02-11 10:00:00 9.3 0 Calma 5 Sudeste 0 -- -- 49
2021-02-11 09:00:00 9.4 0 Calma 10 Nordeste 0 -- -- 39
2021-02-11 08:00:00 8.8 4 Este 7 Este 0 -- -- 45
2021-02-11 07:00:00 8.9 0 Calma 4 Sur 0 -- -- 47
2021-02-11 06:00:00 10.4 0 Calma 4 Sur 0 -- -- 29
2021-02-11 05:00:00 10 0 Calma 7 Este 0 -- -- 30
2021-02-11 04:00:00 8.5 4 Este 9 Nordeste 0 -- -- 51
2021-02-11 03:00:00 7.9 0 Calma 13 Este 0 -- -- 57
2021-02-11 02:00:00 7.9 0 Calma 5 Sudeste 0 -- -- 83
2021-02-11 01:00:00 8.4 0 Calma 4 Nordeste 0 -- -- 75
2021-02-11 00:00:00 9.5 2 Sudeste 6 Sur 0 -- -- 52
2021-02-10 23:00:00 8.2 0 Calma 9 Nordeste 0 -- -- 88
2021-02-10 22:00:00 8.6 0 Calma 13 Este 0 -- -- 90
2021-02-10 21:00:00 9.6 4 Sudeste 8 Sudeste 0 -- -- 92
2021-02-10 20:00:00 10.4 2 Sur 6 Oeste 0 -- -- 90
2021-02-10 19:00:00 11.5 3 Sudoeste 9 Sudoeste 0 -- -- 89
2021-02-10 18:00:00 12.9 4 Oeste 11 Sudoeste 0 -- -- 85
2021-02-10 17:00:00 14.2 6 Oeste 16 Oeste 0 -- -- 80
2021-02-10 16:00:00 14.5 8 Sudoeste 15 Oeste 0 -- -- 80
2021-02-10 15:00:00 15.1 9 Sudoeste 15 Noroeste 0 -- -- 76
2021-02-10 14:00:00 15 5 Noroeste 17 Este 0 -- -- 75
2021-02-10 13:00:00 15.7 5 Oeste 14 Norte 0 -- -- 63
2021-02-10 12:00:00 15.1 5 Sudoeste 8 Sudoeste 0 -- -- 54
2021-02-10 11:00:00 14.9 0 Calma 5 Sudoeste 0 -- -- 46
2021-02-10 10:00:00 11.5 5 Sur 9 Sur 0 -- -- 29
2021-02-10 09:00:00 9.9 3 Sudoeste 9 Sur 0 -- -- 48
2021-02-10 08:00:00 9.9 3 Sudoeste 6 Sur 0 -- -- 42
2021-02-10 07:00:00 9.7 3 Sur 6 Sur 0 -- -- 48
2021-02-10 06:00:00 9.8 3 Sur 8 Sur 0 -- -- 45
2021-02-10 05:00:00 9.4 4 Sur 6 Sur 0 -- -- 47
2021-02-10 04:00:00 10 0 Calma 5 Sudoeste 0 -- -- 47
2021-02-10 03:00:00 9.9 0 Calma 3 Norte 0 -- -- 40
2021-02-10 02:00:00 9.1 0 Calma 6 Este 0 -- -- 62
2021-02-10 01:00:00 9.2 0 Calma -- -- 0 -- -- 40
2021-02-10 00:00:00 9.5 0 Calma 10 Este 0 -- -- 44
2021-02-09 23:00:00 7.8 0 Calma 6 Sudoeste 0 -- -- 96
2021-02-09 22:00:00 8.4 3 Sudeste 7 Sudeste 0 -- -- 96
2021-02-09 21:00:00 9.3 4 Sur 11 Nordeste 0 -- -- 95
2021-02-09 20:00:00 9.9 0 Calma 6 Sudeste 0 -- -- 91
2021-02-09 19:00:00 10.9 4 Sudoeste 12 Nordeste 0 -- -- 93
2021-02-09 18:00:00 11.4 8 Nordeste 14 Nordeste 0 -- -- 90
2021-02-09 17:00:00 12.4 8 Nordeste 15 Nordeste 0 -- -- 86
2021-02-09 16:00:00 13.6 9 Nordeste 16 Nordeste 0 -- -- 79
2021-02-09 15:00:00 13.1 8 Nordeste 15 Nordeste 0 -- -- 82
2021-02-09 14:00:00 14.1 10 Noroeste 17 Oeste 0 -- -- 75
2021-02-09 13:00:00 14.1 5 Noroeste 14 Noroeste 0 -- -- 67
2021-02-09 12:00:00 13.6 6 Norte 12 Nordeste 0 -- -- 73
2021-02-09 11:00:00 13 3 Este 10 Nordeste 0 -- -- 64
2021-02-09 10:00:00 11.1 0 Calma 11 Sur 0 -- -- 33
2021-02-09 09:00:00 11.3 6 Sur 13 Sudoeste 0 -- -- 27
2021-02-09 08:00:00 9.5 0 Calma 12 Sur 0 -- -- 40
2021-02-09 07:00:00 12.1 6 Sur 10 Sur 0 -- -- 27
2021-02-09 06:00:00 12.6 6 Sur 12 Sudoeste 0 -- -- 25
2021-02-09 05:00:00 12.7 6 Sur 11 Sur 0 -- -- 25
2021-02-09 04:00:00 12.9 9 Sur 13 Sur 0 -- -- 24
2021-02-09 03:00:00 13 5 Sur 9 Sur 0 -- -- 23
2021-02-09 02:00:00 12.4 5 Sur 8 Sur 0 -- -- 25
2021-02-09 01:00:00 12.2 4 Este 8 Sur 0 -- -- 25
2021-02-09 00:00:00 9.2 0 Calma 5 Oeste 0 -- -- 57
2021-02-08 23:00:00 11.5 0 Calma 8 Este 0 -- -- 31
2021-02-08 22:00:00 10.9 6 Este 9 Nordeste 0 -- -- 42
2021-02-08 21:00:00 10 4 Sur 13 Este 0 -- -- 49
2021-02-08 20:00:00 9.1 0 Calma 4 Sudoeste 0 -- -- 95
2021-02-08 19:00:00 10.6 2 Sudoeste 5 Noroeste 0 -- -- 92
2021-02-08 18:00:00 11.9 4 Oeste 9 Norte 0 -- -- 89
2021-02-08 17:00:00 12.4 3 Nordeste 14 Nordeste 0 -- -- 87
2021-02-08 16:00:00 12.8 6 Este 16 Nordeste 0 -- -- 83
2021-02-08 15:00:00 12.8 6 Nordeste 15 Norte 0 -- -- 84
2021-02-08 14:00:00 13.2 6 Oeste 19 Norte 0 -- -- 81
2021-02-08 13:00:00 12.5 8 Nordeste 14 Norte 0 -- -- 83
2021-02-08 12:00:00 11.8 8 Nordeste 15 Nordeste 0 -- -- 84
2021-02-08 11:00:00 10.6 9 Nordeste 14 Nordeste 0 -- -- 87
2021-02-08 10:00:00 8.2 3 Sudeste 7 Nordeste 0 -- -- 67
2021-02-08 09:00:00 8.7 0 Calma 5 Sudeste 0 -- -- 55
2021-02-08 08:00:00 10.4 0 Calma 6 Sur 0 -- -- 44
2021-02-08 07:00:00 8.5 3 Este 10 Nordeste 0 -- -- 60
2021-02-08 06:00:00 9.9 0 Calma 9 Nordeste 0 -- -- 52
2021-02-08 05:00:00 8.8 5 Este 10 Sur 0 -- -- 59
2021-02-08 04:00:00 9.3 0 Calma 9 Sur 0 -- -- 58
2021-02-08 03:00:00 9.6 5 Sur 8 Sur 0 -- -- 54
2021-02-08 02:00:00 8.7 3 Sudeste 8 Sudeste 0 -- -- 60
2021-02-08 01:00:00 9 0 Calma 7 Sur 0 -- -- 59
2021-02-08 00:00:00 8.9 3 Nordeste 8 Nordeste 0 -- -- 62
2021-02-07 23:00:00 10 4 Sudeste 15 Nordeste 0 -- -- 51
2021-02-07 22:00:00 9.6 5 Nordeste 12 Nordeste 0 -- -- 61
2021-02-07 21:00:00 7.8 0 Calma 10 Sudeste 0 -- -- 82
2021-02-07 20:00:00 8.4 4 Sudoeste 8 Oeste 0 -- -- 94
2021-02-07 19:00:00 9.6 4 Oeste 10 Oeste 0 -- -- 91
2021-02-07 18:00:00 9.7 3 Oeste 13 Nordeste 0 -- -- 92
2021-02-07 17:00:00 9.6 5 Nordeste 12 Nordeste 0 -- -- 92
2021-02-07 16:00:00 9.9 3 Noroeste 12 Sudoeste 0 -- -- 94
2021-02-07 15:00:00 9.5 6 Sudoeste 13 Sudoeste 0 -- -- 93
2021-02-07 14:00:00 10.6 4 Sur 14 Sudoeste 0 -- -- 86
2021-02-07 13:00:00 10.7 4 Oeste 12 Oeste 0 -- -- 82
2021-02-07 12:00:00 10 0 Calma 9 Oeste 0 -- -- 82
2021-02-07 11:00:00 9.6 0 Calma 10 Sudoeste 0 -- -- 81
2021-02-07 10:00:00 6.6 3 Sur 7 Este 0 -- -- 89
2021-02-07 09:00:00 6.4 5 Sur 13 Este 0 -- -- 87
2021-02-07 08:00:00 6 4 Sudeste 7 Este 0 -- -- 88
2021-02-07 07:00:00 6.2 7 Este 14 Este 0 -- -- 85
2021-02-07 06:00:00 6.3 6 Este 16 Norte 0 -- -- 84
2021-02-07 05:00:00 7 8 Norte 17 Norte 0 -- -- 79
2021-02-07 04:00:00 6.4 6 Sudeste 28 Nordeste 0 -- -- 83
2021-02-07 03:00:00 6.7 7 Este 21 Sudeste 0 -- -- 81
2021-02-07 02:00:00 6.2 6 Sur 12 Nordeste 0 -- -- 87
2021-02-07 01:00:00 6.7 3 Este 22 Este 0 -- -- 86
2021-02-07 00:00:00 7.9 7 Nordeste 33 Nordeste 0 -- -- 81
2021-02-06 23:00:00 7.6 12 Este 30 Nordeste 0 -- -- 83
2021-02-06 22:00:00 7.2 13 Oeste 53 Oeste 0.2 -- -- 83
2021-02-06 21:00:00 7.1 12 Oeste 28 Norte 0 -- -- 85
2021-02-06 20:00:00 7 13 Oeste 48 Noroeste 0.2 -- -- 89
2021-02-06 19:00:00 7.4 13 Oeste 37 Noroeste 0 -- -- 85
2021-02-06 18:00:00 7.7 11 Oeste 41 Noroeste 0 -- -- 85
2021-02-06 17:00:00 8.2 13 Noroeste 35 Noroeste 0.2 -- -- 82
2021-02-06 16:00:00 8.6 11 Noroeste 41 Noroeste 0 -- -- 87
2021-02-06 15:00:00 8.5 15 Noroeste 40 Noroeste 0 -- -- 75
2021-02-06 14:00:00 8.2 9 Oeste 34 Norte 0 -- -- 85
2021-02-06 13:00:00 7.4 17 Norte 35 Noroeste 0 -- -- 86
2021-02-06 12:00:00 7.7 17 Noroeste 57 Norte 0.2 -- -- 79
2021-02-06 11:00:00 7.1 9 Oeste 46 Oeste 0 -- -- 84
2021-02-06 10:00:00 6.4 14 Noroeste 43 Norte 0 -- -- 82
2021-02-06 09:00:00 5.7 18 Noroeste 45 Norte 0.4 -- -- 80
2021-02-06 08:00:00 5.4 12 Oeste 48 Oeste 0.2 -- -- 82
2021-02-06 07:00:00 5.3 10 Norte 45 Noroeste 0.4 -- -- 84
2021-02-06 06:00:00 5.2 10 Oeste 36 Norte 0.2 -- -- 83
2021-02-06 05:00:00 5.3 15 Noroeste 46 Oeste 0 -- -- 76
2021-02-06 04:00:00 5.1 17 Noroeste 45 Oeste 0 -- -- 75
2021-02-06 03:00:00 5.3 17 Noroeste 44 Oeste 0 -- -- 81
2021-02-06 02:00:00 4.8 18 Noroeste 57 Noroeste 1.2 -- -- 84
2021-02-06 01:00:00 4.8 14 Noroeste 50 Noroeste 1.2 -- -- 87
2021-02-06 00:00:00 5.2 16 Noroeste 41 Noroeste 0.2 -- -- 84
2021-02-05 23:00:00 5.1 15 Noroeste 43 Noroeste 0.6 -- -- 86
2021-02-05 22:00:00 5.3 12 Oeste 42 Oeste 0 -- -- 86
2021-02-05 21:00:00 5.1 13 Oeste 46 Noroeste 0 -- -- 87
2021-02-05 20:00:00 5.1 13 Oeste 40 Oeste 0 -- -- 81
2021-02-05 19:00:00 4.9 12 Noroeste 28 Noroeste 0.8 -- -- 84
2021-02-05 18:00:00 6 8 Sudoeste 24 Sudeste 0.6 -- -- 79
2021-02-05 17:00:00 7 5 Norte 25 Noroeste 0.2 -- -- 81
2021-02-05 16:00:00 7 11 Oeste 30 Oeste 0.2 -- -- 76
2021-02-05 15:00:00 6 5 Noroeste 34 Norte 0.2 -- -- 84
2021-02-05 14:00:00 6.6 15 Noroeste 33 Noroeste 0 -- -- 84
2021-02-05 13:00:00 6 15 Noroeste 37 Oeste 0.4 -- -- 86
2021-02-05 12:00:00 6.1 4 Sudoeste 24 Norte 0.8 -- -- 89
2021-02-05 11:00:00 6.1 8 Oeste 25 Noroeste 0.2 -- -- 85
2021-02-05 10:00:00 5 12 Noroeste 41 Noroeste 0 -- -- 80
2021-02-05 09:00:00 4.9 14 Noroeste 28 Noroeste 0 -- -- 81
2021-02-05 08:00:00 4.1 9 Oeste 27 Norte 0 -- -- 90
2021-02-05 07:00:00 4.2 4 Oeste 14 Norte 1.6 -- -- 92
2021-02-05 06:00:00 4.7 5 Sudoeste 23 Oeste 0 -- -- 89
2021-02-05 05:00:00 4.6 4 Oeste 20 Sudoeste 0 -- -- 88
2021-02-05 04:00:00 4.1 7 Oeste 22 Oeste 0 -- -- 88
2021-02-05 03:00:00 4.1 10 Sudoeste 18 Sur 0.4 -- -- 93
2021-02-05 02:00:00 4.8 9 Sudoeste 26 Oeste 0.2 -- -- 90
2021-02-05 01:00:00 4.7 11 Sudoeste 20 Sudoeste 0 -- -- 89
2021-02-05 00:00:00 5.1 6 Sudoeste 23 Sudoeste 0.2 -- -- 91
2021-02-04 23:00:00 5.5 9 Oeste 22 Noroeste 0.4 -- -- 87
2021-02-04 22:00:00 5.9 7 Sudoeste 15 Sur 0.8 -- -- 90
2021-02-04 21:00:00 6.6 5 Oeste 16 Noroeste 0.2 -- -- 87
2021-02-04 20:00:00 6.6 8 Sudoeste 19 Oeste 0 -- -- 85
2021-02-04 19:00:00 7 8 Oeste 24 Oeste 0 -- -- 82
2021-02-04 18:00:00 8.6 8 Noroeste 28 Noroeste 0 -- -- 70
2021-02-04 17:00:00 9.1 10 Noroeste 27 Oeste 0 -- -- 77
2021-02-04 16:00:00 9.8 8 Sudoeste 25 Sudoeste 0 -- -- 72
2021-02-04 15:00:00 10.2 11 Oeste 28 Oeste 0 -- -- 68
2021-02-04 14:00:00 10.3 13 Oeste 36 Sudoeste 0 -- -- 71
2021-02-04 13:00:00 9.8 10 Oeste 23 Sudoeste 0 -- -- 94
2021-02-04 12:00:00 9.6 12 Oeste 23 Sudoeste 0.6 -- -- 95
2021-02-04 11:00:00 9.7 8 Sudoeste 15 Sudoeste 0 -- -- 92
2021-02-04 10:00:00 9.9 3 Sudoeste 15 Sudoeste 0 -- -- 85
2021-02-04 09:00:00 8.6 4 Este 12 Nordeste 0 -- -- 93
2021-02-04 08:00:00 8.5 8 Sudoeste 16 Sur 0 -- -- 93
2021-02-04 07:00:00 7.9 8 Sur 17 Sudoeste 0 -- -- 90
2021-02-04 06:00:00 7.3 5 Sudeste 14 Este 0 -- -- 89
2021-02-04 05:00:00 7.9 6 Sur 9 Sur 0 -- -- 91
2021-02-04 04:00:00 7.1 5 Sudeste 18 Nordeste 0 -- -- 90
2021-02-04 03:00:00 9.9 8 Sur 15 Sudoeste 0 -- -- 56
2021-02-04 02:00:00 7.7 0 Calma 13 Sur 0 -- -- 81
2021-02-04 01:00:00 11.5 6 Sudoeste 16 Sudoeste 0 -- -- 45
2021-02-04 00:00:00 12.5 8 Sudoeste 15 Sudoeste 0 -- -- 39